Regional Weather Roundup
Issued by NWS Wakefield, VA

Home | Current Version | Previous Version | Text Only | Print | Product List | Glossary Off
Versions: 1 2 3 4 5 6 7 8 9 10 11 12 13 14 15 16 17 18 19 20 21 22 23 24 25 26 27 28 29 30 31 32 33 34 35 36 37 38 39 40 41 42 43 44 45 46 47 48 49 50

000
ASUS41 KAKQ 230110
RWRAKQ

REGIONAL WEATHER ROUNDUP
NATIONAL WEATHER SERVICE WAKEFIELD VA
800 PM EST MON DEC 22 2014

Note: "fair" indicates few or no clouds below 12,000 feet with no
significant weather and/or obstructions to visibility. * = Denotes
station may not report precipitation (e.g., rain,snow,etc.),
thunder or fog.

VAZ042-051-052>054-056-230200-
NORTHERN VIRGINIA

CITY           SKY/WX    TMP DP  RH WIND       PRES   REMARKS
WASH NATIONAL  LGT RAIN  38  33  82 N13       30.18S
DULLES         LGT RAIN  32  31  96 N9        30.16F FOG
FORT BELVOIR   CLOUDY    36  32  87 N3        30.16F
QUANTICO       CLOUDY    36  32  85 NE7       30.16F
FREDERICKSBRG* CLOUDY    36  36 100 N3        30.15S
STAFFORD*      CLOUDY    34  34 100 N6        30.19S
WARRENTON      CLOUDY    35  35 100 N6        30.14S FOG
CULPEPER*      RAIN      36  34  93 CALM      30.16R
MANASSAS*      NOT AVBL
LEESBURG*      MIX PCPN  34  34 100 N5        30.18F
WINCHESTER     CLOUDY    32  30  93 CALM      30.16R FOG
FRONT ROYAL*   CLOUDY    32  32 100 CALM      30.15R
LURAY*         CLOUDY    34  34 100 CALM      30.13S FOG
$$

VAZ048-049-060>072-079>083-230200-
CENTRAL AND SOUTH CENTRAL VIRGINIA

CITY           SKY/WX    TMP DP  RH WIND       PRES   REMARKS
RICHMOND       LGT RAIN  37  34  89 N12       30.09F FOG
CHESTERFIELD*  CLOUDY    36  25  64 N8        30.11S
PETERSBURG*    CLOUDY    38  37  98 N7        30.09F FOG
HANOVER        CLOUDY    35  34  96 N6        30.13S FOG
TAPPAHANNOCK*  CLOUDY    37  34  89 NW8       30.13R FOG
QUINTON*       CLOUDY    36  36  98 N7        30.10S
CHARLOTTSVILLE CLOUDY    35  33  92 CALM      30.12S FOG
GORDONSVILLE*  CLOUDY    34  33  95 NE6       30.12F
ORANGE*        CLOUDY    34  34 100 N7        30.14S
LOUISA*        CLOUDY    34  34 100 N7        30.11S FOG
BUMPASS*       CLOUDY    34  33  95 N5        30.12F
FARMVILLE*     CLOUDY    37  37 100 NE6       30.12S FOG
CREWE*         CLOUDY    34  33  96 N5        30.10R
FORT PICKETT*  CLOUDY    35  34  97 N9        30.09S
CHASE CITY*    CLOUDY    37  37 100 N3        30.10R
CLARKSVILLE*   CLOUDY    36  34  93 N3        30.10R
SOUTH HILL*    CLOUDY    35  35  98 N7        30.13F
LAWRENCEVILLE* CLOUDY    36  36  99 CALM      30.07F
EMPORIA*       CLOUDY    36  36 100 NW8       30.10S FOG
$$

VAZ088>098-230200-
SOUTHEAST VIRGINIA

CITY           SKY/WX    TMP DP  RH WIND       PRES   REMARKS
NORFOLK        CLOUDY    45  43  93 N14       30.02F
VIRGINIA BEACH DRIZZLE   50  48  93 N10       30.01F FOG
NORFOLK NAVAL  LGT RAIN  48  44  86 N14       30.04F FOG
WEST POINT*    CLOUDY    42  40  91 NW5       30.10S
SALUDA*        CLOUDY    40  39  97 N8        30.06F
NEWPORT NEWS   LGT RAIN  47  43  86 N5        30.05F FOG
LANGLEY AFB    LGT RAIN  45  43  93 N13       30.04F FOG
FORT EUSTIS    CLOUDY    43 N/A N/A N6        30.04S
WILLIAMSBURG*  CLOUDY    43  43 100 N5        30.07S VSB 1
HR EXEC AP*    CLOUDY    45  43  93 N6        30.06S
FRANKLIN*      CLOUDY    41 N/A N/A N3        30.05F
WAKEFIELD      CLOUDY    40  38  93 N6        30.08R FOG
$$

VAZ020-022-025-037-045-230200-
WEST CENTRAL AND SOUTHWEST VIRGINIA

CITY           SKY/WX    TMP DP  RH WIND       PRES   REMARKS
STAUNTON*      DRIZZLE   33  32  95 N3        30.13S
WAYNESBORO*    CLOUDY    32  32  99 N5        30.10S
HOT SPRINGS VA SNOW      33  33 100 E7        29.97F VSB<1/4
LYNCHBURG      CLOUDY    35  35 100 N9        30.10S FOG
DANVILLE       CLOUDY    36  33  89 NE7       30.10F FOG
SOUTH BOSTON*  CLOUDY    35  34  95 N6        30.10S
MARTINSVILLE   CLOUDY    36  36 100 NE6       30.10F FOG
ROANOKE        DRIZZLE   36  34  92 NE6       30.11S FOG
BLACKSBURG     CLOUDY    33  33  98 E3        30.08S FOG
DUBLIN*        CLOUDY    35  35 100 NE7       30.04F FOG
MARION*        FOG       36  35  96 E13       30.02S VSB 1
HILLSVILLE*    FOG       35  35 100 CALM      30.01S VSB 1/4
RICHLANDS*     PTCLDY    42  36  78 SE9G20    29.91S
WISE*          MOCLDY    46  36  66 SE10      29.89R
ABINGDON*      PTCLDY    43  39  85 E13G18    29.94R
$$

MDZ021>025-VAZ099-100-230200-
SOUTHERN MARYLAND AND THE DELMARVA PENINSULA

CITY           SKY/WX    TMP DP  RH WIND       PRES   REMARKS
PATUXENT RIVER LGT RAIN  39  36  89 N10       30.12S FOG
BAY BRIDGE APT   N/A     37  37 100 N5        30.16R FOG
LEONARDTOWN    CLOUDY    36  36 100 N5        30.15S
DOVER          LGT RAIN  42  42 100 NE10      30.12S
GEORGETOWN     CLOUDY    44  41  89 NE12      30.12S
EASTON         CLOUDY    39  39 100 N7        30.16F FOG
CAMBRIDGE      CLOUDY    41  37  87 N6        30.11S
SALISBURY      CLOUDY    47  43  86 NE8       30.08F
OCEAN CITY     CLOUDY    49  46  90 E12       30.09F
WALLOPS ISLAND CLOUDY    47  45  93 E15       30.07F
ACCOMACK*      CLOUDY    50  46  87 NE12G18   30.05F
$$

NCZ012>017-030>032-230200-
NORTH CENTRAL AND EASTERN NORTH CAROLINA

CITY           SKY/WX    TMP DP  RH WIND       PRES   REMARKS
ROANOKE RAPIDS CLOUDY    37  37 100 N9        30.07S FOG
RALEIGH        DRIZZLE   37  35  92 N6        30.09R FOG
ELIZABETH CITY CLOUDY    56  51  84 NW9       30.01R HAZE
AHOSKIE*       CLOUDY    40  39  96 N5        30.06S FOG
EDENTON*       CLOUDY    47  47  99 N12       30.01S FOG
CURRITUCK*     CLOUDY    53  52  94 NW5       30.01R FOG
KILL DEVIL HLS FOG       53  53 100 CALM      29.97R VSB 1/4
MANTEO         FOG       51  51 100 NW6       29.98R VSB 1
CAPE HATTERAS  FOG       51  51 100 W5        29.97S VSB 1/2
TARBORO*       CLOUDY    41  40  96 N6        30.07S FOG
GOLDSBORO      CLOUDY    42  41  99 VRB5      30.04R FOG
WASHINGTON     CLOUDY    44  43  97 NW7       30.04S FOG
GREENVILLE     CLOUDY    43  43 100 N9        30.05F FOG
NEW BERN       CLOUDY    47  44  90 N7        30.04S FOG
WILMINGTON     CLOUDY    45  44  97 N7        30.04R
$$

VAZ048-230200-
ELSEWHERE

CITY           SKY/WX    TMP DP  RH WIND       PRES   REMARKS
HARRISBURG PA  LGT RAIN  33  32  96 NW12      30.19R FOG     WCI  24
BALTIMORE      LGT RAIN  36  34  92 W7        30.17R FOG
ANNAPOLIS      LGT RAIN  38  35  89 NW8       30.16R FOG
ANDREWS AFB    LGT RAIN  36  34  93 N10       30.15R FOG
PHILADELPHIA   LGT RAIN  41  37  86 NE9       30.19S FOG
HENDERSON NC   CLOUDY    36  35  95 N5        30.09R FOG
GREENSBORO     DRIZZLE   35  34  96 NE12      30.05F FOG
ROCKY MOUNT    CLOUDY    41  39  93 N12       30.05F FOG
$$

VAZ100-230200-
MARINE

STATION/POSITION TIME  TEMP    WIND        PRES    WAVE   SWELL
                       AIR SEA DIR/SP/G            HT/PER HT/PER
                 (UTC) (F)     (DEG/KT/KT) (MB)    (FT/S) (FT/S)
CAPE MAY NJ      0100   45 44   60/ 10/ 16 1019.9S
LEWES DE         0100   45 42   80/ 11/ 16 1020.0R
15NM E FENWICK I 0100   49 45              1019.2R   4/ 4
OCEAN-CITY-INLET 0100   48 43   70/  9/ 12 1018.7F
WACHAPREAGUE VA  0100   48 42   30/ 14/ 19 1017.2F
THOMAS POINT MD  0100   38 40  350/ 10/ 11 1022.2R
GOOSES REEF MD   0100   39     VRB 14/ 16  1019.6S
COVE POINT MD    0100   38      10/ 10/ 13 1020.0F
SOLOMONS ISLAND  0100      42                N/A
BISHOPS HEAD MD  0100   41 38  330/  8/  9 1019.0R
PINEY POINT MD   0100          340/  8/  9   N/A
POTOMAC MD       0100   40      10/ 10/ 12 1018.6S
CAMBRIDGE MD     0100   40 40   10/  6/  7 1019.8R
LEWISETTA VA     0100   40 41  360/  9/ 13 1018.9F
RAPPAHANNOCK LGT 0100          350/ 17/ 19 1018.1F
STINGRAY PT      0100   42      10/ 14/ 17 1018.5F
YORK RVR RNG VA  0100   44      20/ 14/ 16 1016.5F
YORKTOWN VA      0100   43 45   10/ 10/ 11 1017.1F
JAMESTOWN VA     0100   40     360/  8/ 12   N/A
DOMINION TERM VA 0100   46     360/  2/  6 1017.1R
KIPTOPEKE VA     0100      49   30/  9/ 13   N/A
CHES BAY BRIDGE  0100   45 45  340/ 13/ 15 1016.2F
CAPE HENRY VA    0100   47     290/  8/ 10 1015.5S
CHESAPEAKE LGHT  0000   54      80/ 29/ 33 1015.7R
WILLOUBY STN VA  0100   45     360/ 12/ 14 1017.2F
S CRANEY ISL VA  0100          350/ 10/ 13 1016.8R
CAPE HENRY BUOY  0100      49                N/A     8/ 8
1ST LANDING BUOY 0100   48     360/ 12/ 14 1016.1F
CAPE CHARLES BUO 0100      47                N/A     7/ 7   3/ 8
64NM E OF VA BCH 0100   61 56  120/ 12/ 14 1014.1F  12/ 8  10/ 8
DUCK PIER NC     0100   52 46   60/ 12/ 12 1013.8F
44100 DUCK FRF   0100      51                N/A     9/ 8   2/11
44056 DUCK FRF   0100      47                N/A     8/ 9   2/11
OREGON INLET NC  0100   52 49  290/  6/  7 1015.1R
HATTERAS NC      0100   52 54  270/  7/  8 1015.2F
DIAMOND SHLS NC  0100   60                 1015.1R   7/ 8
CAPE LOOKOUT NC  0000   51     310/  7/  9 1016.1R
$$


USA.gov is the U.S. government's official web portal to all federal, state and local government web resources and services.